486P/Leonard (2025)

Japanese version
Home page
Updated on January 31, 2026

---------------------------------------------------------------------

* Profile

Designation 486P/2024 H1
Recovery Date April 18, 2024
Magnitude 20.7 mag
Recoverer Erwin Schwab (Egelsbach, Germany)

* Pictures

* Orbital Elements

Epoch 2025 May 5.0 TT = JDT 2460800.5
T 2025 Apr. 3.85626 TT                                  Pike
q   2.3089738            (2000.0)            P               Q
n   0.14262697     Peri.   93.94674     +0.68116074     +0.73173133
a   3.6280084      Node   219.02423     -0.68609187     +0.62640035
e   0.3635699      Incl.    2.20956     -0.25553472     +0.26868544
P   6.91
From 332 observations 2018 June 8-2025 Aug. 3, mean residual 0".7.

* Magnitudes Graph

        m1 = 8.5 + 5 log d + 20.0 log r

---------------------------------------------------------------------

The orbital elements are published on M.P.E.C. 2025-P113.
The magnitudes graphs are made with Comet for Windows.

---------------------------------------------------------------------

Copyright(C) Seiichi Yoshida (comet@aerith.net). All rights reserved.